Regional Weather Roundup
Issued by NWS Midland/Odessa, TX

Home | Current Version | Previous Version | Text Only | Print | Product List | Glossary On
Versions: 1 2 3 4 5 6 7 8 9 10 11 12 13 14 15 16 17 18 19 20 21 22 23 24 25 26 27 28 29 30 31 32 33 34 35 36 37 38 39 40 41 42 43 44 45 46 47 48 49 50
000
ASUS44 KMAF 220510
RWRMAF
MIDLAND AREA WEATHER ROUNDUP
NATIONAL WEATHER SERVICE MIDLAND TX
1200 AM CDT FRI SEP 22 2017

...IN SOUTHWEST TEXAS AND SOUTHEAST NEW MEXICO...

CITY           SKY/WX    TMP DP  RH WIND       PRES   REMARKS
ALPINE         CLEAR     73  59  61 CALM      30.06F
ANDREWS        FAIR      79  62  56 S15G22    29.93S
ARTESIA        CLEAR     77  45  31 SE10      29.89R
BIG SPRING     CLEAR     81  61  50 S10       29.94R
CARLSBAD       CLOUDY    82  57  42 S15       29.88R
DRYDEN           N/A     82  65  56 SE12      29.89S
FORT STOCKTON  CLEAR     78  67  68 SE22G31   29.91S
GUAD PASS      CLEAR     79  45  29 CALM      30.06S
HOBBS          CLEAR     79  61  53 S17G25    29.93R
MARFA          NOT AVBL
MIDLAND AIRPK  CLEAR     82  63  52 S13       29.93S
MIDLAND INTL   CLEAR     82  63  52 S16       29.92
ODESSA         CLEAR     80  65  59 S15       29.93S
PECOS          CLEAR     81  66  61 SE17      29.86S
PRESIDIO       FAIR      84  60  43 NE13      29.89S
SEMINOLE       CLEAR     80  61  52 S16       29.94R
SNYDER         CLEAR     81  61  50 S12       29.92S
WINK           CLEAR     81  66  60 SE20G26   29.88R
$$
...OTHER STATIONS IN TEXAS...

CITY           SKY/WX    TMP DP  RH WIND       PRES   REMARKS
ABILENE        CLEAR     80  65  59 S14       29.91S
AMARILLO       CLEAR     78  57  48 S23       29.91R
AUSTIN         CLEAR     75  72  90 E3        29.95R
BROWNSVILLE    PTCLDY    82  77  84 SE9       29.89S
CORPUS CHRISTI MOCLDY    82  77  84 SE9       29.90R
DALLAS FTW     CLEAR     80  71  74 S12       29.92R
DEL RIO        CLEAR     81  68  64 E16       29.86R
EL PASO        PTCLDY    82  45  27 S5        29.90R
HOUSTON INT    MOCLDY    76  74  93 SE5       29.95F
LUBBOCK        CLEAR     77  57  50 SE14      29.92R
SAN ANGELO     CLEAR     79  60  52 SE6       29.91R
SAN ANTONIO    CLOUDY    76  69  79 E8        29.94S
WACO           CLEAR     77  70  79 SE9       29.94R
WICHITA FALLS  NOT AVBL
$$
...OTHER LOCATIONS IN NEW MEXICO...

CITY           SKY/WX    TMP DP  RH WIND       PRES   REMARKS
ALAMOGORDO     CLEAR     79  39  24 S10       29.92R
ALBUQUERQUE    PTCLDY    70  36  28 SE13      29.94R
CANNON AFB     PTCLDY    72  49  44 S15       29.95R
CLOVIS         PTCLDY    73  51  46 S15       29.95R
HOLLOMAN AFB   CLEAR     74  41  30 S10       29.92R
ROSWELL        PTCLDY    77  42  28 S9        29.89R
RUIDOSO        CLOUDY    64  41  42 S5        30.13S
SANTA FE       MOCLDY    64  35  34 S5        29.99R
TRUTH OR CONSE CLEAR     73  38  27 S7        29.93R
TUCUMCARI      CLEAR     75  41  29 SW13      29.85S
$$




USA.gov is the U.S. government's official web portal to all federal, state and local government web resources and services.